Regional Weather Roundup
Issued by NWS

Home | Current Version | Previous Version | Text Only | Print | Product List | Glossary Off
Versions: 1 2 3 4 5 6 7 8 9 10 11 12 13 14 15 16 17 18 19 20 21 22 23 24 25 26 27 28 29 30 31 32 33 34 35 36 37 38 39 40 41 42 43 44 45 46 47 48 49 50

000
ASUS43 KFSD 220102
RWRSD

WEATHER ROUNDUP FOR SOUTH DAKOTA
NATIONAL WEATHER SERVICE SIOUX FALLS SD
700 PM CST SUN DEC 21 2014

NOTE: "FAIR" INDICATES FEW OR NO CLOUDS BELOW 12,000 FEET WITH NO
SIGNIFICANT WEATHER AND/OR OBSTRUCTIONS TO VISIBILITY.


SDZ001>005-009-010-012>017-220200-
NORTHWEST AND NORTH CENTRAL SOUTH DAKOTA

CITY           SKY/WX    TMP DP  RH WIND       PRES   REMARKS
BUFFALO          N/A     39  36  89 W17G24    29.32F
FAITH            N/A     37  29  72 W8        29.40R
MOBRIDGE       CLOUDY    30  29  96 E12       29.41S FOG     WCI  20
$$

SDZ012>016-024>037-041>051-057-063-072>074-220200-
SOUTHWEST AND SOUTH CENTRAL SOUTH DAKOTA

CITY           SKY/WX    TMP DP  RH WIND       PRES   REMARKS
RAPID CTY ARPT LGT RAIN  40  32  73 NW13      29.45R
PIERRE         MOCLDY    29  26  89 NE5       29.40S WCI  24
CUSTER         PTCLDY    38  26  62 NW13G22   29.45R
ELLSWORTH AFB  LGT RAIN  43  34  70 NW18G28   29.44
PHILIP         CLOUDY    37  29  72 NW6       29.41R
PINE RIDGE     MOCLDY    38  28  67 CALM      29.44S
WINNER         FAIR      42  31  64 S13       29.40S
$$

SDZ004>011-016>023-039-040-220200-
NORTHEAST SOUTH DAKOTA

CITY           SKY/WX    TMP DP  RH WIND       PRES   REMARKS
ABERDEEN       CLOUDY    33  30  88 E8        29.49F WCI  26
WATERTOWN      CLOUDY    35  33  92 S17G23    29.51S FOG     WCI  25
SISSETON         N/A     34  33  96 S10       29.54S WCI  26
$$

SDZ017-020-022-023-036>040-048>070-220200-
SOUTHEAST SOUTH DAKOTA

CITY           SKY/WX    TMP DP  RH WIND       PRES   REMARKS
SIOUX FALLS    CLOUDY    38  36  92 S18       29.58S FOG
HURON          CLOUDY    35  32  88 S16       29.48S WCI  25
MITCHELL       PTCLDY    36  33  89 S16       29.49F
YANKTON        CLOUDY    39  36  87 SE12      29.58F
$$

ABBREVIATIONS USED IN REMARKS
   TC - TEMPERATURE IN CELSIUS
  WCI - WIND CHILL INDEX
   HX - HEAT INDEX
  VSB - VISIBILITY



USA.gov is the U.S. government's official web portal to all federal, state and local government web resources and services.